• In Czech Republic
  • List of Countries
  • For 7 days
  • Water Temperature
  • Satellite Maps
  • Weather Map
  • Weather Widgets
  • user-avatar
    Login

    Hourly Weather Krasnyy Yar

    Today, 18 September, Tuesday

    Time Temperature Precipitation Wind Pressure Humidity
    00:00 +9°C° 0 mm 2 mps 755 mmHg 91%
    01:00 +8°C° 0 mm 2 mps 755 mmHg 91%
    02:00 +8°C° 0 mm 2 mps 755 mmHg 92%
    03:00 +7°C° 0 mm 2 mps 755 mmHg 92%
    04:00 +7°C° 0 mm 2 mps 755 mmHg 92%
    05:00 +7°C° 0 mm 2 mps 755 mmHg 92%
    06:00 +6°C° 0 mm 2 mps 754 mmHg 92%
    07:00 +9°C° 0 mm 1 mps 754 mmHg 84%
    08:00 +11°C° 0 mm 1 mps 754 mmHg 76%
    09:00 +13°C° 0 mm 1 mps 754 mmHg 66%
    10:00 +14°C° 0 mm 1 mps 753 mmHg 60%
    11:00 +15°C° 0 mm 2 mps 753 mmHg 53%
    12:00 +16°C° 0 mm 2 mps 752 mmHg 47%
    13:00 +16°C° 0 mm 2 mps 752 mmHg 47%
    14:00 +17°C° 0 mm 3 mps 751 mmHg 47%
    15:00 +17°C° 0 mm 3 mps 751 mmHg 48%
    16:00 +14°C° 0.1 mm 3 mps 751 mmHg 58%
    17:00 +14°C° 0.1 mm 2 mps 750 mmHg 69%
    18:00 +12°C° 0.1 mm 2 mps 750 mmHg 79%
    19:00 +12°C° 0.1 mm 2 mps 750 mmHg 83%
    20:00 +11°C° 0.1 mm 3 mps 749 mmHg 86%
    21:00 +11°C° 0.1 mm 3 mps 749 mmHg 89%
    22:00 +11°C° 0.2 mm 3 mps 749 mmHg 91%
    23:00 +11°C° 0.2 mm 4 mps 748 mmHg 92%

    Tomorrow, 19 September, Wednesday

    Time Temperature Precipitation Wind Pressure Humidity
    00:00 +9°C° 0.2 mm 5 mps 748 mmHg 93%
    01:00 +9°C° 0.1 mm 5 mps 748 mmHg 91%
    02:00 +9°C° 0.1 mm 5 mps 748 mmHg 90%
    03:00 +9°C° 0.1 mm 5 mps 748 mmHg 88%
    04:00 +9°C° 0.3 mm 6 mps 748 mmHg 88%
    05:00 +8°C° 0.3 mm 6 mps 748 mmHg 88%
    06:00 +8°C° 0.3 mm 6 mps 748 mmHg 88%
    07:00 +8°C° 0.5 mm 6 mps 748 mmHg 87%
    08:00 +8°C° 0.5 mm 7 mps 749 mmHg 86%
    09:00 +8°C° 0.5 mm 7 mps 749 mmHg 86%
    10:00 +8°C° 0.2 mm 7 mps 749 mmHg 84%
    11:00 +8°C° 0.2 mm 7 mps 749 mmHg 83%
    12:00 +9°C° 0.2 mm 7 mps 749 mmHg 82%
    13:00 +9°C° 0.1 mm 7 mps 750 mmHg 80%
    14:00 +9°C° 0.1 mm 7 mps 750 mmHg 78%
    15:00 +10°C° 0.1 mm 7 mps 750 mmHg 76%
    16:00 +9°C° 0 mm 6 mps 751 mmHg 76%
    17:00 +9°C° 0 mm 5 mps 751 mmHg 77%
    18:00 +8°C° 0 mm 4 mps 751 mmHg 78%
    19:00 +8°C° 0 mm 4 mps 751 mmHg 80%
    20:00 +7°C° 0 mm 4 mps 752 mmHg 81%
    21:00 +7°C° 0 mm 4 mps 752 mmHg 83%
    22:00 +7°C° 0 mm 3 mps 752 mmHg 85%
    23:00 +7°C° 0 mm 3 mps 752 mmHg 88%

    Day after tomorrow, 20 September, Thursday

    Time Temperature Precipitation Wind Pressure Humidity
    00:00 +7°C° 0 mm 3 mps 753 mmHg 90%
    01:00 +7°C° 0 mm 3 mps 753 mmHg 89%
    02:00 +7°C° 0 mm 2 mps 753 mmHg 87%
    03:00 +7°C° 0 mm 2 mps 753 mmHg 86%
    04:00 +8°C° 0 mm 2 mps 753 mmHg 86%
    05:00 +8°C° 0 mm 2 mps 753 mmHg 86%
    06:00 +8°C° 0 mm 2 mps 753 mmHg 85%
    07:00 +9°C° 0 mm 2 mps 753 mmHg 83%
    08:00 +10°C° 0 mm 2 mps 753 mmHg 81%
    09:00 +12°C° 0 mm 2 mps 753 mmHg 79%
    10:00 +13°C° 0.1 mm 2 mps 753 mmHg 78%
    11:00 +14°C° 0.1 mm 2 mps 753 mmHg 77%
    12:00 +15°C° 0.1 mm 2 mps 752 mmHg 76%
    13:00 +15°C° 0.1 mm 2 mps 752 mmHg 78%
    14:00 +15°C° 0.1 mm 1 mps 752 mmHg 79%
    15:00 +16°C° 0.1 mm 1 mps 752 mmHg 80%
    16:00 +15°C° 0.2 mm 1 mps 752 mmHg 84%
    17:00 +14°C° 0.2 mm 1 mps 752 mmHg 88%
    18:00 +14°C° 0.2 mm 1 mps 752 mmHg 92%
    19:00 +14°C° 0.3 mm 1 mps 752 mmHg 93%
    20:00 +14°C° 0.3 mm 1 mps 752 mmHg 95%
    21:00 +13°C° 0.3 mm 2 mps 752 mmHg 96%
    22:00 +13°C° 0.1 mm 2 mps 752 mmHg 96%
    23:00 +13°C° 0.1 mm 2 mps 752 mmHg 97%

    21 September, Friday

    Time Temperature Precipitation Wind Pressure Humidity
    00:00 +13°C° 0.1 mm 2 mps 753 mmHg 98%
    01:00 +13°C° 0.2 mm 2 mps 753 mmHg 98%
    02:00 +13°C° 0.2 mm 2 mps 753 mmHg 97%
    03:00 +14°C° 0.2 mm 2 mps 754 mmHg 97%
    04:00 +14°C° 0.1 mm 2 mps 754 mmHg 97%
    05:00 +14°C° 0.1 mm 2 mps 754 mmHg 97%
    06:00 +13°C° 0.1 mm 2 mps 755 mmHg 97%
    07:00 +14°C° 0 mm 2 mps 755 mmHg 94%
    08:00 +14°C° 0 mm 2 mps 756 mmHg 90%
    09:00 +15°C° 0 mm 2 mps 757 mmHg 87%
    10:00 +15°C° 0 mm 2 mps 757 mmHg 81%
    11:00 +16°C° 0 mm 2 mps 757 mmHg 76%
    12:00 +17°C° 0 mm 2 mps 758 mmHg 70%
    13:00 +17°C° 0 mm 2 mps 758 mmHg 68%
    14:00 +17°C° 0 mm 2 mps 758 mmHg 67%
    15:00 +18°C° 0 mm 2 mps 758 mmHg 65%
    16:00 +17°C° 0 mm 2 mps 758 mmHg 70%
    17:00 +16°C° 0 mm 2 mps 759 mmHg 76%
    18:00 +15°C° 0 mm 2 mps 759 mmHg 81%
    19:00 +14°C° 0 mm 2 mps 759 mmHg 83%
    20:00 +14°C° 0 mm 1 mps 760 mmHg 85%
    21:00 +13°C° 0 mm 1 mps 760 mmHg 86%
    22:00 +13°C° 0 mm 1 mps 760 mmHg 87%
    23:00 +13°C° 0 mm 1 mps 760 mmHg 87%

    22 September, Saturday

    Time Temperature Precipitation Wind Pressure Humidity
    00:00 +11°C° 0 mm 0 mps 760 mmHg 87%
    01:00 +11°C° 0 mm 0 mps 761 mmHg 87%
    02:00 +11°C° 0 mm 0 mps 761 mmHg 88%
    03:00 +11°C° 0 mm 0 mps 761 mmHg 88%
    04:00 +11°C° 0 mm 0 mps 761 mmHg 89%
    05:00 +10°C° 0 mm 0 mps 761 mmHg 91%
    06:00 +11°C° 0 mm 1 mps 761 mmHg 92%
    07:00 +13°C° 0 mm 1 mps 762 mmHg 85%
    08:00 +14°C° 0 mm 1 mps 762 mmHg 79%
    09:00 +16°C° 0 mm 1 mps 762 mmHg 73%
    10:00 +16°C° 0 mm 0 mps 762 mmHg 70%
    11:00 +17°C° 0 mm 0 mps 761 mmHg 67%
    12:00 +18°C° 0 mm 0 mps 761 mmHg 64%
    13:00 +18°C° 0 mm 0 mps 761 mmHg 63%
    14:00 +19°C° 0 mm 0 mps 761 mmHg 63%
    15:00 +19°C° 0 mm 0 mps 761 mmHg 62%
    16:00 +18°C° 0 mm 0 mps 761 mmHg 68%
    17:00 +18°C° 0 mm 1 mps 761 mmHg 73%
    18:00 +16°C° 0 mm 1 mps 760 mmHg 79%
    19:00 +15°C° 0 mm 1 mps 760 mmHg 81%
    20:00 +15°C° 0 mm 1 mps 760 mmHg 83%
    21:00 +14°C° 0 mm 1 mps 760 mmHg 86%
    22:00 +14°C° 0 mm 1 mps 760 mmHg 87%
    23:00 +13°C° 0 mm 1 mps 760 mmHg 88%

    23 September, Sunday

    Time Temperature Precipitation Wind Pressure Humidity
    00:00 +13°C° 0 mm 1 mps 760 mmHg 89%
    01:00 +13°C° 0 mm 1 mps 760 mmHg 90%
    02:00 +12°C° 0 mm 1 mps 760 mmHg 91%
    03:00 +12°C° 0 mm 1 mps 761 mmHg 91%
    04:00 +12°C° 0 mm 1 mps 761 mmHg 92%
    05:00 +12°C° 0 mm 1 mps 761 mmHg 92%
    06:00 +12°C° 0 mm 1 mps 761 mmHg 93%
    07:00 +13°C° 0 mm 1 mps 760 mmHg 86%
    08:00 +15°C° 0 mm 1 mps 760 mmHg 80%
    09:00 +17°C° 0 mm 2 mps 760 mmHg 74%
    10:00 +18°C° 0 mm 2 mps 760 mmHg 70%
    11:00 +19°C° 0 mm 2 mps 759 mmHg 65%
    12:00 +20°C° 0 mm 2 mps 759 mmHg 61%
    13:00 +20°C° 0 mm 2 mps 759 mmHg 61%
    14:00 +20°C° 0 mm 2 mps 759 mmHg 61%
    15:00 +20°C° 0 mm 2 mps 759 mmHg 61%
    16:00 +19°C° 0 mm 2 mps 759 mmHg 67%
    17:00 +17°C° 0 mm 2 mps 759 mmHg 73%
    18:00 +16°C° 0 mm 2 mps 759 mmHg 79%
    19:00 +15°C° 0 mm 2 mps 759 mmHg 82%
    20:00 +14°C° 0 mm 2 mps 759 mmHg 85%
    21:00 +14°C° 0 mm 2 mps 759 mmHg 88%
    22:00 +13°C° 0 mm 2 mps 759 mmHg 89%
    23:00 +13°C° 0 mm 2 mps 759 mmHg 91%
    Show more